Regional Weather Roundup
Issued by NWS New Orleans/Baton Rouge, LA

Home | Current Version | Previous Version | Graphics & Text | Print | Product List | Glossary On
Versions: 1 2 3 4 5 6 7 8 9 10 11 12 13 14 15 16 17 18 19 20 21 22 23 24 25 26 27 28 29 30 31 32 33 34 35 36 37 38 39 40 41 42 43 44 45 46 47 48 49 50
163
ASUS44 KLIX 280205
RWRLIX
NEW ORLEANS REGIONAL WEATHER ROUNDUP
NATIONAL WEATHER SERVICE NEW ORLEANS LA
900 PM CDT SUN JUL 27 2014

NOTE: "FAIR" INDICATES FEW OR NO CLOUDS BELOW 12,000 FEET WITH NO
      SIGNIFICANT WEATHER AND/OR OBSTRUCTIONS TO VISIBILITY.
      SKY/WX - SKY CONDITION AND SIGNIFICANT WEATHER.
      TMP - AIR TEMPERATURE.     DP    - DEWPOINT TEMPERATURE.
      RH  - RELATIVE HUMIDITY.   PRES  - PRESSURE.
      HI  - HEAT INDEX.          WCI   - WIND CHILL INDEX.

*  THESE STATIONS ARE NOT NWS OR FAA STATIONS AND ARE NOT UNDER
   NWS QUALITY CONTROL.

LAZ038-040-048-061>063-065>067-069-280300-
SOUTHEAST LOUISIANA

CITY           SKY/WX    TMP DP  RH WIND       PRES   REMARKS
N.O. AUDUBON     N/A     84  76  76 MISG        N/A
N.O. INTL ARPT MOCLDY    83  74  74 W9        30.03R
N.O. LAKEFRONT PTCLDY    86  74  67 W15       30.03S
N.O. DOWNTOWN*   N/A     86  72  62 SW7       30.04S
SLIDELL        CLEAR     86  75  69 SW5       30.02R HX  95
BATON ROUGE    PTCLDY    85  76  74 SW8       30.03R
BOOTHVILLE     PTCLDY    85  77  77 SW12      30.05S HX  95
BELLE CHASSE   CLEAR     83  75  77 SW3       30.03S
BOGALUSA*        N/A     84  77  80 CALM      30.04R
GALLIANO*      NOT AVBL
NEW ROADS*       N/A     83  77  81 S7        30.02S
GONZALES*        N/A     83  79  88 S3        30.03S
HAMMOND*       CLEAR     86  72  62 SW5       30.05R
HOUMA*         PTCLDY    83  74  76 W3        30.05R
PORT FOURCHON* CLEAR     86  75  70 SW9       30.07S HX  95

$$

MSZ070-080>082-280300-
SOUTHERN MISSISSIPPI

CITY           SKY/WX    TMP DP  RH WIND       PRES   REMARKS
MCCOMB         PTCLDY    83  75  77 CALM      30.04R
GULFPORT       CLEAR     88  75  65 W3        30.01R HX  97
BILOXI         CLEAR     86  76  71 SW8       30.02R HX  96
PASCAGOULA     CLEAR     83  78  85 SW5       30.02R
STENNIS ARPT*  CLEAR    N/A N/A N/A CALM      30.03

$$

COASTAL OBSERVATIONS
LAKE AND NEARSHORE STATIONS

STATION/POSITION TIME  TEMP    WIND        PRES    WAVE
                       AIR SEA DIR/SP/G            HT/PER
                 (UTC) (F)     (DEG/KT/KT) (MB)    (FT/S)
PASCAGOULA       0200   86     220/ 15/ 20 1016.0
WAVELAND YACHT   0200   86     240/  6/  9 1016.1
GRAND ISLE       0200   85 88  250/  6/ 11 1018.2
SOUTHWEST PASS   0200   85 85  250/ 16/ 18 1018.2
NEW CANAL        0200   87 86  240/  7/ 14 1017.5
SHELL BEACH      0200   83 83  220/  7/  9 1016.9

OFFSHORE STATIONS

STATION/POSITION TIME  TEMP    WIND        PRES    WAVE
                       AIR SEA DIR/SP/G            HT/PER
                 (UTC) (F)     (DEG/KT/KT) (MB)    (FT/S)
64 S DAUPHIN ISL 0143   86 87  240/ 16/ 17 1017.5

$$




USA.gov is the U.S. government's official web portal to all federal, state and local government web resources and services.